FW5225 Weather Reports


time (UTC)temp
C
wind
direction
speed
KPH
gust
KPH
rain 1hr
cm
rain 24hr
cm
rain mn
cm
humidity
%
barometer
mb
20260904135503 28 40 0.0 4.8 0.00 0.00 0.00 54 1008.6
20260904135001 28 69 1.6 4.8 0.00 0.00 0.00 54 1008.5
20260904134602 28 83 0.0 4.8 0.00 0.00 0.00 53 1008.3
20260904134058 28 46 1.6 6.4 0.00 0.00 0.00 53 1008.3
20260904133559 27 54 3.2 6.4 0.00 0.00 0.00 53 1008.2
20260904133055 27 58 1.6 4.8 0.00 0.00 0.00 52 1008.2
20260904132554 27 38 0.0 6.4 0.00 0.00 0.00 52 1008.1
20260904132053 27 55 1.6 9.7 0.00 0.00 0.00 51 1008.0
20260904131601 27 56 4.8 9.7 0.00 0.00 0.00 51 1007.9
20260904131052 27 49 4.8 11.3 0.00 0.00 0.00 51 1007.8
20260904130549 27 35 4.8 11.3 0.00 0.00 0.00 51 1007.8
20260904130049 27 23 4.8 11.3 0.00 0.00 0.00 51 1007.7
20260904125549 27 47 1.6 4.8 0.00 0.00 0.00 52 1007.7
20260904125048 27 50 0.0 4.8 0.00 0.00 0.00 52 1007.6
20260904124548 27 39 3.2 4.8 0.00 0.00 0.00 52 1007.5
20260904124048 27 47 0.0 3.2 0.00 0.00 0.00 52 1007.5
20260904123546 27 44 0.0 3.2 0.00 0.00 0.00 52 1007.4
20260904123046 27 44 0.0 4.8 0.00 0.00 0.00 53 1007.3
20260904122544 27 24 0.0 3.2 0.00 0.00 0.00 53 1007.2
20260904122044 27 79 0.0 3.2 0.00 0.00 0.00 53 1007.2
20260904121543 27 96 0.0 3.2 0.00 0.00 0.00 53 1007.3
20260904121043 27 259 0.0 0.0 0.00 0.00 0.00 53 1007.1
20260904120542 27 259 0.0 0.0 0.00 0.00 0.00 52 1007.1
20260904120040 28 259 0.0 0.0 0.00 0.00 0.00 52 1007.1
20260904115539 28 259 0.0 0.0 0.00 0.00 0.00 52 1007.1
20260904115038 28 259 0.0 0.0 0.00 0.00 0.00 53 1007.0
20260904114538 28 259 0.0 0.0 0.00 0.00 0.00 51 1007.1
20260904114037 28 259 0.0 3.2 0.00 0.00 0.00 51 1007.0
20260904113540 28 259 0.0 3.2 0.00 0.00 0.00 51 1007.0
20260904113043 28 259 0.0 1.6 0.00 0.00 0.00 50 1007.0
20260904112536 28 259 0.0 0.0 0.00 0.00 0.00 50 1007.0
20260904112035 28 259 0.0 3.2 0.00 0.00 0.00 49 1007.0
20260904111538 28 259 0.0 3.2 0.00 0.00 0.00 50 1006.9
20260904111035 28 222 0.0 0.0 0.00 0.00 0.00 49 1006.9
20260904110534 28 222 0.0 0.0 0.00 0.00 0.00 49 1006.9
20260904110033 28 222 0.0 0.0 0.00 0.00 0.00 48 1007.0
20260904105534 28 222 0.0 3.2 0.00 0.00 0.00 48 1006.9
20260904105033 28 222 0.0 3.2 0.00 0.00 0.00 48 1007.0
20260904104531 29 254 0.0 1.6 0.00 0.00 0.00 48 1006.9
20260904104031 29 254 0.0 3.2 0.00 0.00 0.00 48 1006.8
20260904103529 29 178 0.0 3.2 0.00 0.00 0.00 46 1006.8
20260904103029 29 169 0.0 3.2 0.00 0.00 0.00 46 1006.7
20260904102528 29 219 0.0 3.2 0.00 0.00 0.00 47 1006.7
20260904102027 30 219 0.0 3.2 0.00 0.00 0.00 46 1006.6
20260904101526 30 246 0.0 3.2 0.00 0.00 0.00 46 1006.6
20260904101031 30 244 0.0 4.8 0.00 0.00 0.00 46 1006.5
20260904100529 30 242 1.6 4.8 0.00 0.00 0.00 46 1006.5
20260904100029 30 225 0.0 4.8 0.00 0.00 0.00 45 1006.5
20260904095527 30 248 0.0 4.8 0.00 0.00 0.00 45 1006.5
20260904095027 30 279 0.0 4.8 0.00 0.00 0.00 45 1006.5
20260904094533 30 219 1.6 4.8 0.00 0.00 0.00 44 1006.5
20260904094024 30 256 1.6 4.8 0.00 0.00 0.00 44 1006.5
20260904093524 30 235 0.0 9.7 0.00 0.00 0.00 44 1006.5
20260904093023 30 286 1.6 9.7 0.00 0.00 0.00 44 1006.5
20260904092528 30 278 1.6 4.8 0.00 0.00 0.00 44 1006.5
20260904092022 30 259 1.6 4.8 0.00 0.00 0.00 43 1006.5
20260904091522 30 249 0.0 4.8 0.00 0.00 0.00 44 1006.5
20260904091024 30 237 0.0 4.8 0.00 0.00 0.00 43 1006.5
20260904090521 30 240 1.6 4.8 0.00 0.00 0.00 43 1006.5
20260904090021 30 246 0.0 3.2 0.00 0.00 0.00 43 1006.5
20260904085520 30 278 0.0 3.2 0.00 0.00 0.00 43 1006.5
20260904085022 30 227 0.0 9.7 0.00 0.00 0.00 42 1006.5
20260904084520 30 236 1.6 9.7 0.00 0.00 0.00 42 1006.5
20260904084018 30 244 0.0 8.0 0.00 0.00 0.00 42 1006.5
20260904083519 30 273 1.6 8.0 0.00 0.00 0.00 41 1006.5
20260904083034 31 260 1.6 6.4 0.00 0.00 0.00 41 1006.6
20260904082517 31 255 3.2 8.0 0.00 0.00 0.00 41 1006.6
20260904082017 31 267 1.6 8.0 0.00 0.00 0.00 41 1006.6
20260904081516 31 304 0.0 9.7 0.00 0.00 0.00 41 1006.6
20260904081016 31 257 0.0 9.7 0.00 0.00 0.00 42 1006.6
20260904080516 31 218 1.6 8.0 0.00 0.00 0.00 41 1006.5
20260904080018 31 276 1.6 9.7 0.00 0.00 0.00 42 1006.6
20260904075514 31 250 1.6 9.7 0.00 0.00 0.00 42 1006.6
20260904075014 31 171 3.2 9.7 0.00 0.00 0.00 41 1006.6
20260904074517 31 300 1.6 6.4 0.00 0.00 0.00 41 1006.6
20260904074015 31 250 1.6 8.0 0.00 0.00 0.00 41 1006.6
20260904073514 31 278 3.2 8.0 0.00 0.00 0.00 41 1006.5
20260904073014 31 255 0.0 9.7 0.00 0.00 0.00 41 1006.6
20260904072512 31 260 3.2 8.0 0.00 0.00 0.00 41 1006.6
20260904072015 31 296 3.2 8.0 0.00 0.00 0.00 41 1006.5
20260904071511 31 205 1.6 9.7 0.00 0.00 0.00 41 1006.5
20260904071010 31 294 0.0 9.7 0.00 0.00 0.00 41 1006.5
20260904070513 31 269 1.6 11.3 0.00 0.00 0.00 41 1006.4
20260904070009 31 261 3.2 11.3 0.00 0.00 0.00 41 1006.4
20260904065509 31 240 1.6 8.0 0.00 0.00 0.00 41 1006.4
20260904065009 31 244 3.2 8.0 0.00 0.00 0.00 41 1006.4
20260904064509 32 268 0.0 8.0 0.00 0.00 0.00 42 1006.2
20260904064011 32 274 1.6 6.4 0.00 0.00 0.00 42 1006.2
20260904063508 32 243 1.6 12.9 0.00 0.00 0.00 41 1006.2
20260904063008 32 248 1.6 9.7 0.00 0.00 0.00 41 1006.2
20260904062507 32 276 3.2 14.5 0.00 0.00 0.00 41 1006.1
20260904062007 32 246 4.8 14.5 0.00 0.00 0.00 41 1006.2
20260904061507 32 182 3.2 12.9 0.00 0.00 0.00 41 1006.2
20260904061007 32 238 4.8 12.9 0.00 0.00 0.00 41 1006.2
20260904060509 32 193 1.6 8.0 0.00 0.00 0.00 41 1006.1
20260904060014 32 244 3.2 11.3 0.00 0.00 0.00 41 1006.1
20260904055507 32 191 3.2 12.9 0.00 0.00 0.00 41 1006.0
20260904055007 32 267 1.6 14.5 0.00 0.00 0.00 41 1005.9
20260904054510 32 216 3.2 9.7 0.00 0.00 0.00 41 1005.9
20260904054009 32 266 1.6 9.7 0.00 0.00 0.00 40 1005.9
20260904053510 33 283 1.6 9.7 0.00 0.00 0.00 40 1005.9
20260904053013 33 277 4.8 14.5 0.00 0.00 0.00 40 1005.9
20260904052507 33 201 3.2 14.5 0.00 0.00 0.00 39 1005.8
20260904052009 33 244 4.8 14.5 0.00 0.00 0.00 39 1005.8
20260904051511 33 259 4.8 12.9 0.00 0.00 0.00 39 1005.8
20260904051005 33 223 4.8 9.7 0.00 0.00 0.00 39 1005.8
20260904050504 33 267 1.6 6.4 0.00 0.00 0.00 39 1005.8
20260904050017 33 281 3.2 11.3 0.00 0.00 0.00 39 1005.8
20260904045505 33 271 4.8 11.3 0.00 0.00 0.00 38 1005.8
20260904045005 33 247 3.2 11.3 0.00 0.00 0.00 38 1005.8
20260904044512 33 215 1.6 9.7 0.00 0.00 0.00 38 1005.7
20260904044003 33 300 1.6 9.7 0.00 0.00 0.00 39 1005.8
20260904043503 33 267 3.2 11.3 0.00 0.00 0.00 38 1005.7
20260904043009 33 279 3.2 11.3 0.00 0.00 0.00 38 1005.7
20260904042503 33 205 1.6 9.7 0.00 0.00 0.00 39 1005.6
20260904042002 33 242 3.2 9.7 0.00 0.00 0.00 39 1005.6
20260904041505 33 234 3.2 8.0 0.00 0.00 0.00 39 1005.6
20260904041003 33 219 1.6 17.7 0.00 0.00 0.00 39 1005.5
20260904040504 34 223 3.2 17.7 0.00 0.00 0.00 39 1005.5
20260904040007 34 247 4.8 20.9 0.00 0.00 0.00 39 1005.4
20260904035503 34 252 6.4 20.9 0.00 0.00 0.00 39 1005.3
20260904035003 34 188 3.2 14.5 0.00 0.00 0.00 38 1005.2
20260904034503 34 230 3.2 11.3 0.00 0.00 0.00 38 1005.2
20260904034002 34 261 1.6 11.3 0.00 0.00 0.00 38 1005.1
20260904033505 34 238 1.6 11.3 0.00 0.00 0.00 38 1005.1
20260904033010 34 173 3.2 11.3 0.00 0.00 0.00 37 1005.0
20260904032502 34 218 3.2 14.5 0.00 0.00 0.00 37 1004.9
20260904032001 34 252 1.6 16.1 0.00 0.00 0.00 37 1004.9
20260904031501 34 273 4.8 16.1 0.00 0.00 0.00 37 1004.8
20260904031001 35 248 3.2 12.9 0.00 0.00 0.00 36 1004.7
20260904030503 35 298 1.6 12.9 0.00 0.00 0.00 36 1004.6
20260904030001 35 254 3.2 11.3 0.00 0.00 0.00 35 1004.6
20260904025501 35 259 3.2 9.7 0.00 0.00 0.00 35 1004.6
20260904025002 35 267 4.8 9.7 0.00 0.00 0.00 34 1004.5
20260904024501 35 247 3.2 9.7 0.00 0.00 0.00 34 1004.5
20260904024000 35 219 1.6 8.0 0.00 0.00 0.00 34 1004.4
20260904023501 35 225 1.6 9.7 0.00 0.00 0.00 34 1004.3
20260904023106 35 267 3.2 9.7 0.00 0.00 0.00 34 1004.4
20260904022600 35 277 4.8 11.3 0.00 0.00 0.00 34 1004.3
20260904022100 35 277 4.8 11.3 0.00 0.00 0.00 34 1004.3
20260904021604 35 272 1.6 9.7 0.00 0.00 0.00 33 1004.2
20260904021059 35 194 3.2 9.7 0.00 0.00 0.00 33 1004.2
20260904020600 35 175 3.2 9.7 0.00 0.00 0.00 32 1004.1
20260904020104 35 247 3.2 9.7 0.00 0.00 0.00 33 1004.1
20260904015559 35 262 3.2 16.1 0.00 0.00 0.00 32 1004.1
20260904015058 36 265 4.8 16.1 0.00 0.00 0.00 32 1004.1
20260904014619 36 288 4.8 12.9 0.00 0.00 0.00 32 1004.1
20260904014101 36 243 3.2 17.7 0.00 0.00 0.00 31 1004.0
20260904013558 36 214 4.8 17.7 0.00 0.00 0.00 30 1004.0
20260904013119 36 250 4.8 14.5 0.00 0.00 0.00 30 1004.0
20260904012557 36 205 4.8 17.7 0.00 0.00 0.00 29 1004.0
20260904012057 36 263 6.4 17.7 0.00 0.00 0.00 30 1004.0
20260904011558 36 210 3.2 14.5 0.00 0.00 0.00 30 1004.0
20260904011057 37 269 4.8 14.5 0.00 0.00 0.00 28 1004.0
20260904010557 37 261 4.8 9.7 0.00 0.00 0.00 28 1004.0
20260904010113 37 219 3.2 12.9 0.00 0.00 0.00 27 1004.0
20260904010027 37 288 1.6 12.9 0.00 0.00 0.00 27 1004.0
20260904005556 37 216 4.8 12.9 0.00 0.00 0.00 27 1004.0
20260904005058 37 220 3.2 12.9 0.00 0.00 0.00 26 1004.1
20260904004556 37 254 3.2 11.3 0.00 0.00 0.00 26 1004.0
20260904004055 37 249 4.8 11.3 0.00 0.00 0.00 26 1004.0
20260904003556 37 216 4.8 11.3 0.00 0.00 0.00 26 1004.0
20260904003110 37 211 3.2 11.3 0.00 0.00 0.00 26 1004.0
20260904002555 37 223 3.2 11.3 0.00 0.00 0.00 26 1004.0
20260904002055 37 304 4.8 11.3 0.00 0.00 0.00 26 1004.0
20260904001555 38 229 3.2 14.5 0.00 0.00 0.00 27 1004.0
20260904001055 38 300 9.7 14.5 0.00 0.00 0.00 27 1004.0
20260904000554 38 259 4.8 11.3 0.00 0.00 0.00 27 1004.1
20260904000054 38 269 4.8 11.3 0.00 0.00 0.00 26 1004.2
20260903235553 37 196 4.8 11.3 0.00 0.00 0.00 27 1004.1
20260903235053 37 224 4.8 14.5 0.00 0.00 0.00 27 1004.2
20260903234553 37 257 3.2 14.5 0.00 0.00 0.00 27 1004.2
20260903234054 38 179 3.2 14.5 0.00 0.00 0.00 27 1004.2
20260903233551 38 269 4.8 12.9 0.00 0.00 0.00 27 1004.3
20260903233058 38 258 4.8 11.3 0.00 0.00 0.00 27 1004.3
20260903232550 38 217 3.2 12.9 0.00 0.00 0.00 27 1004.3
20260903232050 38 286 4.8 12.9 0.00 0.00 0.00 26 1004.4
20260903231550 39 253 3.2 12.9 0.00 0.00 0.00 26 1004.4
20260903231049 40 277 6.4 12.9 0.00 0.00 0.00 26 1004.5
20260903230549 40 231 1.6 11.3 0.00 0.00 0.00 26 1004.4
20260903230050 39 292 0.0 11.3 0.00 0.00 0.00 27 1004.6
20260903225548 39 202 0.0 11.3 0.00 0.00 0.00 27 1004.6
20260903225047 39 178 3.2 11.3 0.00 0.00 0.00 26 1004.6
20260903224546 39 123 1.6 14.5 0.00 0.00 0.00 27 1004.7
20260903224046 39 173 3.2 14.5 0.00 0.00 0.00 27 1004.8
20260903223545 39 119 3.2 12.9 0.00 0.00 0.00 27 1004.8
20260903223055 39 207 1.6 8.0 0.00 0.00 0.00 28 1004.8
20260903222544 38 178 3.2 8.0 0.00 0.00 0.00 27 1004.9
20260903222041 38 215 1.6 8.0 0.00 0.00 0.00 28 1005.0
20260903221542 37 315 0.0 11.3 0.00 0.00 0.00 30 1005.2
20260903221042 37 310 3.2 11.3 0.00 0.00 0.00 30 1005.2
20260903220540 37 303 3.2 9.7 0.00 0.00 0.00 30 1005.4
20260903220039 38 224 3.2 9.7 0.00 0.00 0.00 29 1005.4
20260903215542 38 190 1.6 9.7 0.00 0.00 0.00 29 1005.5
20260903215037 38 28 1.6 9.7 0.00 0.00 0.00 28 1005.7
20260903214541 38 277 3.2 8.0 0.00 0.00 0.00 28 1005.6
20260903214037 38 278 3.2 8.0 0.00 0.00 0.00 28 1005.8
20260903213536 38 80 1.6 12.9 0.00 0.00 0.00 28 1005.8
20260903213042 38 178 3.2 12.9 0.00 0.00 0.00 28 1005.9
20260903212534 38 180 1.6 9.7 0.00 0.00 0.00 28 1006.1
20260903212034 38 200 1.6 17.7 0.00 0.00 0.00 29 1006.1
20260903211539 38 224 4.8 17.7 0.00 0.00 0.00 28 1006.2
20260903211033 38 97 4.8 9.7 0.00 0.00 0.00 28 1006.2
20260903210532 38 209 3.2 9.7 0.00 0.00 0.00 29 1006.3
20260903210031 38 234 3.2 11.3 0.00 0.00 0.00 29 1006.4
20260903205532 37 192 3.2 16.1 0.00 0.00 0.00 30 1006.5
20260903205028 38 88 4.8 16.1 0.00 0.00 0.00 29 1006.6
20260903204528 37 135 1.6 14.5 0.00 0.00 0.00 30 1006.6
20260903204031 37 213 3.2 14.5 0.00 0.00 0.00 30 1006.7
20260903203527 37 143 3.2 9.7 0.00 0.00 0.00 31 1006.8
20260903203031 37 246 3.2 9.7 0.00 0.00 0.00 31 1006.8
20260903202525 37 115 1.6 9.7 0.00 0.00 0.00 30 1006.9
20260903202025 38 210 3.2 6.4 0.00 0.00 0.00 30 1007.1
20260903201525 38 199 0.0 12.9 0.00 0.00 0.00 30 1007.1
20260903201024 37 175 3.2 12.9 0.00 0.00 0.00 30 1007.2
20260903200523 37 207 1.6 6.4 0.00 0.00 0.00 31 1007.2
20260903200021 37 259 1.6 8.0 0.00 0.00 0.00 32 1007.3
20260903195521 37 174 3.2 9.7 0.00 0.00 0.00 32 1007.4
20260903195020 36 228 0.0 9.7 0.00 0.00 0.00 33 1007.5
20260903194519 37 119 3.2 6.4 0.00 0.00 0.00 31 1007.5
20260903194017 37 155 1.6 6.4 0.00 0.00 0.00 32 1007.6
20260903193516 36 148 0.0 12.9 0.00 0.00 0.00 34 1007.6
20260903193016 36 154 3.2 12.9 0.00 0.00 0.00 33 1007.7
20260903192514 36 136 3.2 16.1 0.00 0.00 0.00 33 1007.8
20260903192012 36 139 6.4 16.1 0.00 0.00 0.00 32 1007.9
20260903191523 36 192 3.2 12.9 0.00 0.00 0.00 33 1008.1
20260903191012 36 215 0.0 12.9 0.00 0.00 0.00 33 1008.1
20260903190511 36 157 4.8 11.3 0.00 0.00 0.00 32 1008.2
20260903190012 36 171 3.2 11.3 0.00 0.00 0.00 33 1008.3
20260903185509 36 120 1.6 8.0 0.00 0.00 0.00 33 1008.4
20260903185009 36 104 1.6 8.0 0.00 0.00 0.00 33 1008.5
20260903184509 36 205 0.0 9.7 0.00 0.00 0.00 35 1008.6
20260903184009 36 279 3.2 9.7 0.00 0.00 0.00 34 1008.6
20260903183507 36 221 1.6 16.1 0.00 0.00 0.00 35 1008.7
20260903183007 36 169 3.2 16.1 0.00 0.00 0.00 35 1008.8
20260903182505 36 158 3.2 9.7 0.00 0.00 0.00 34 1008.8
20260903182005 35 112 3.2 9.7 0.00 0.00 0.00 33 1008.9
20260903181503 35 85 1.6 8.0 0.00 0.00 0.00 34 1008.9
20260903181004 35 271 1.6 8.0 0.00 0.00 0.00 35 1009.0
20260903180501 35 186 1.6 9.7 0.00 0.00 0.00 37 1009.2
20260903180100 35 200 1.6 9.7 0.00 0.00 0.00 37 1009.2
20260903175558 35 201 3.2 8.0 0.00 0.00 0.00 38 1009.3
20260903175057 35 192 3.2 9.7 0.00 0.00 0.00 36 1009.4
20260903174556 35 169 1.6 9.7 0.00 0.00 0.00 38 1009.3
20260903174055 35 225 1.6 6.4 0.00 0.00 0.00 38 1009.4
20260903173553 34 218 1.6 4.8 0.00 0.00 0.00 39 1009.4
20260903173055 34 192 0.0 8.0 0.00 0.00 0.00 41 1009.5
20260903172551 34 274 1.6 8.0 0.00 0.00 0.00 41 1009.5
20260903172051 34 70 0.0 8.0 0.00 0.00 0.00 42 1009.5
20260903171559 34 172 1.6 8.0 0.00 0.00 0.00 42 1009.4
20260903171048 33 206 3.2 8.0 0.00 0.00 0.00 42 1009.4
20260903170548 33 280 1.6 8.0 0.00 0.00 0.00 44 1009.4
20260903170046 33 222 0.0 6.4 0.00 0.00 0.00 44 1009.4
20260903165545 33 159 1.6 8.0 0.00 0.00 0.00 44 1009.5
20260903165043 33 220 1.6 11.3 0.00 0.00 0.00 44 1009.6
20260903164542 33 159 3.2 11.3 0.00 0.00 0.00 45 1009.5
20260903164041 33 163 1.6 11.3 0.00 0.00 0.00 45 1009.5
20260903163539 32 189 1.6 11.3 0.00 0.00 0.00 46 1009.6
20260903163041 32 156 0.0 6.4 0.00 0.00 0.00 47 1009.6
20260903162538 32 248 1.6 8.0 0.00 0.00 0.00 48 1009.6
20260903162035 32 187 1.6 6.4 0.00 0.00 0.00 48 1009.6
20260903161535 32 204 3.2 6.4 0.00 0.00 0.00 49 1009.6
20260903161034 32 138 1.6 6.4 0.00 0.00 0.00 50 1009.6
20260903160532 32 164 0.0 6.4 0.00 0.00 0.00 50 1009.7
20260903160031 32 151 1.6 6.4 0.00 0.00 0.00 51 1009.7
20260903155531 31 184 0.0 6.4 0.00 0.00 0.00 51 1009.6
20260903155028 31 155 1.6 6.4 0.00 0.00 0.00 51 1009.6
20260903154527 31 186 1.6 6.4 0.00 0.00 0.00 51 1009.6
20260903154025 31 132 0.0 8.0 0.00 0.00 0.00 52 1009.6
20260903153524 31 112 1.6 6.4 0.00 0.00 0.00 53 1009.7
20260903153023 31 181 1.6 6.4 0.00 0.00 0.00 53 1009.7
20260903152522 30 260 0.0 4.8 0.00 0.00 0.00 54 1009.7
20260903152020 30 188 0.0 4.8 0.00 0.00 0.00 55 1009.7
20260903151521 30 181 0.0 4.8 0.00 0.00 0.00 56 1009.6
20260903151018 30 142 0.0 3.2 0.00 0.00 0.00 56 1009.7
20260903150516 30 279 0.0 3.2 0.00 0.00 0.00 57 1009.7
20260903150016 30 208 0.0 3.2 0.00 0.00 0.00 57 1009.7
20260903145514 29 178 0.0 3.2 0.00 0.00 0.00 58 1009.7
20260903145013 29 177 0.0 3.2 0.00 0.00 0.00 59 1009.7
20260903144512 28 169 0.0 3.2 0.00 0.00 0.00 59 1009.7
20260903144010 28 195 0.0 4.8 0.00 0.00 0.00 60 1009.7
20260903143508 28 242 0.0 4.8 0.00 0.00 0.00 60 1009.7
20260903143008 28 228 0.0 4.8 0.00 0.00 0.00 59 1009.6
20260903142507 28 200 0.0 6.4 0.00 0.00 0.00 59 1009.6
20260903142005 28 267 1.6 6.4 0.00 0.00 0.00 58 1009.6
20260903141510 28 267 0.0 6.4 0.00 0.00 0.00 58 1009.4
20260903141004 28 309 0.0 6.4 0.00 0.00 0.00 58 1009.3
20260903140503 28 280 0.0 6.4 0.00 0.00 0.00 58 1009.3
20260903140009 28 267 0.0 3.2 0.00 0.00 0.00 56 1009.3